www.pogodaiklimat.ru

Погода и климат >> Архив погоды >> Украина >> Губиниха


ПОГОДА в Губинихе

  • Прогноз погоды в Губинихе
  • Монитор погоды в Губинихе

АРХИВ ПОГОДЫ в Губинихе

Время (UTC), дата Ветер
(напр.,м/с)
 
Видим.   Явления Облачность Т
(С)
Тd
(С)
f
(%)
Тe
(С)
Тes
(С)
Комфортность P
(гПа)
Po
(гПа)
Тmin
(С)
Tmax
(С)
R
(мм)
R24
(мм)
S
(см)
21 16.09 З 1 20 км 4/0
[]
+14.6 +6.2 57 +15 +15 1009.0 993.9
00 17.09 ЮЗ 1 16 км 4/0
[Ac trans]
+12.4 +7.1 70 +13 +13 1009.0 993.8
03 17.09 ЮЗ 1 14 км 10/0
[Ac und]
+16.2 +9.8 66 +17 +17 1008.0 993.0
06 17.09 З 2 15 км 10/10 720 м
[Cb calv]
+16.0 +9.0 63 +16 +16 1009.0 994.0 +12.2
09 17.09 ЮЗ 2 8000 м дымка {ливн. осадки} 10/8 660 м
[Cb calv Ac und]
+13.3 +11.5 89 +13 +13 1010.0 994.9
12 17.09 ЮЗ 2 20 км {ливн. осадки} 8/0
[As trans]
+15.4 +10.0 70 +15 +15 1009.0 994.0 1
15 17.09 ЮЗ 3 20 км ясно +16.7 +12.0 74 +16 +17 1008.0 993.1
18 17.09 ЮЗ 2 13 км ясно +12.2 +9.6 84 +11 +11 1008.0 992.8 +17.3 1
21 17.09 ЮЗ 1 9000 м дымка ясно +9.7 +8.3 91 +9 +9 1009.0 993.7
00 18.09 ЮВ 1 9000 м дымка 3/0
[Ac cast]
+8.5 +7.4 93 +8 +8 1007.0 991.6
03 18.09 ЮЗ 1 9000 м дымка 3/0
[Ac trans]
+10.2 +8.6 90 +10 +10 1006.0 990.8
06 18.09 ЮЗ 2 9000 м слаб. ливневой дождь 10/10 600 м
[Cb cap]
+12.2 +10.3 88 +11 +11 1006.0 990.9 +8.3 0.5
09 18.09 ЮЗ 3 20 км {ливн. осадки} 4/0
[Ac trans]
+15.5 +12.3 81 +15 +20 1005.0 990.1
12 18.09 ЮЗ 8 20 км {ливн. осадки} 8/6 600 м
[Cb calv Ac As]
+15.8 +3.9 45 +14 +14 1005.0 990.0
15 18.09 З 12 20 км 4/0
[Ac cast]
+14.3 +2.8 46 +12 +12 1008.0 992.9
18 18.09 ЮЗ 3 21 км 3/0
[Ac trans]
+10.4 +3.0 60 +9 +9 1011.0 995.7 +15.8 1
21 18.09 З 3 18 км ясно +9.2 +4.6 73 +7 +7 1013.0 997.6
00 19.09 ЮЗ 2 18 км 3/0
[Ac cast]
+8.2 +4.2 76 +6 +6 1014.0 998.5
03 19.09 ЮЗ 2 9000 м дымка ясно +6.9 +5.8 93 +5 +5 1016.0 1000.4
06 19.09 З 2 20 км 3/3 600 м
[Cb calv]
+9.8 +7.1 83 +8 +10 1018.0 1002.5 +6.5
09 19.09 ЮЗ 4 20 км 8/8 930 м
[Cb calv]
+13.8 +6.9 63 +12 +12 1019.0 1003.7
12 19.09 ЮЗ 6 20 км 8/8 750 м
[Cb calv]
+17.0 +4.3 43 +16 +16 1018.0 1002.9
15 19.09 З 4 20 км 4/4 600 м
[Cb calv]
+15.6 +4.6 48 +15 +15 1018.0 1002.8
18 19.09 ЮЗ 2 24 км ясно +9.5 +5.9 78 +8 +8 1019.0 1003.5 +17.0
21 19.09 штиль 0 19 км 6/0
[As trans]
+7.3 +4.3 81 +6 +6 1019.0 1003.4
00 20.09 штиль 0 19 км ясно +5.3 +1.8 78 +4 +4 1019.0 1003.3
03 20.09 штиль 0 9000 м дымка ясно +1.9 +0.6 91 +1 +1 1019.0 1003.1
06 20.09 ЮЗ 1 20 км ясно +9.3 +5.7 78 +9 +12 1018.0 1002.5 +1.7
09 20.09 З 3 20 км 4/4 600 м
[Cb calv]
+13.6 +5.0 56 +13 +18 1017.0 1001.8
12 20.09 З 3 20 км 9/9 870 м
[Cb calv]
+14.2 +4.2 51 +13 +13 1016.0 1000.8
15 20.09 З 2 20 км 4/3 600 м
[Cb calv Ac trans]
+14.0 +3.5 49 +14 +14 1015.0 999.8
18 20.09 З 2 19 км 4/0
[Ac trans]
+10.4 +4.5 67 +9 +9 1016.0 1000.6 +14.2
21 20.09 З 2 17 км 6/6 720 м
[Sc]
+7.8 +2.5 69 +6 +6 1017.0 1001.4
00 21.09 З 2 14 км 6/6 750 м
[Sc]
+5.5 +2.0 78 +3 +3 1017.0 1001.3
03 21.09 СЗ 2 11 км 8/8 700 м
[Sc]
+5.9 +3.1 82 +4 +4 1018.0 1002.3
06 21.09 З 3 13 км 6/6 800 м
[Sc]
+7.7 +5.2 84 +5 +6 1019.0 1003.4 +5.3
09 21.09 З 4 20 км 8/8 750 м
[Cb calv]
+11.0 +4.0 62 +9 +9 1019.0 1003.6
12 21.09 ЮЗ 4 20 км 8/4 600 м
[Cb calv Ac trans]
+11.8 +3.1 55 +10 +10 1019.0 1003.6
15 21.09 З 4 20 км 4/3 600 м
[Cb calv Ac trans]
+12.5 +2.6 51 +11 +11 1019.0 1003.7
18 21.09 ЮЗ 2 20 км ясно +8.3 -0.2 55 +7 +7 1020.0 1004.4 +13.1
21 21.09 ЮЗ 1 17 км 9/0
[Ac trans]
+7.1 -0.4 59 +7 +7 1019.0 1003.4
00 22.09 ЮЗ 4 15 км 10/10 870 м
[Cb calv]
+9.1 +2.2 62 +6 +6 1016.0 1000.5
03 22.09 ЮЗ 4 15 км 10/10 840 м
[Cb calv]
+10.1 +5.1 71 +8 +8 1014.0 998.6
06 22.09 ЮЗ 8 13 км 10/10 800 м
[Cb calv]
+12.5 +9.9 84 +9 +9 1014.0 998.8 +6.9
09 22.09 ЮЗ 8 20 км 10/10 800 м
[Cb calv]
+14.8 +10.6 76 +13 +13 1013.0 997.9
12 22.09 ЮЗ 10 20 км 10/10 800 м
[Cb calv]
+16.2 +8.2 59 +14 +14 1013.0 998.0
15 22.09 ЮЗ 8 20 км 10/10 600 м
[Cb calv]
+15.6 +9.5 67 +14 +14 1013.0 997.9
18 22.09 ЮЗ 3 19 км 3/0
[Ac trans]
+13.0 +9.1 77 +12 +12 1014.0 998.8 +16.2
21 22.09 ЮЗ 2 17 км ясно +11.8 +8.6 81 +11 +11 1013.0 997.7
00 23.09 ЮЗ 2 13 км ясно +10.4 +7.6 83 +9 +9 1013.0 997.7
03 23.09 СВ 3 12 км 8/8 900 м
[Sc]
+8.9 +6.2 83 +6 +6 1015.0 999.5
06 23.09 С 3 13 км 10/10 870 м
[Sc]
+8.6 +5.0 78 +6 +6 1017.0 1001.5 +8.4
09 23.09 С 4 20 км 4/0
[Ac lent]
+12.2 +3.7 56 +10 +15 1018.0 1002.7
12 23.09 СЗ 3 20 км 3/0
[Ci fib]
+13.6 +2.2 46 +13 +16 1018.0 1002.7
15 23.09 С 1 20 км ясно +13.2 +0.2 41 +14 +14 1018.0 1002.7
18 23.09 штиль 0 24 км ясно +7.5 0.0 59 +7 +7 1020.0 1004.4 +13.6

 

Местоположение метеостанции Губиниха (Днепропетровская область, Украина): широта 48.80 долгота 35.25 высота над уровнем моря 127 м.

В архиве по умолчанию представлена погода в Губинихе за последнюю неделю. Архивные данные за месяц целиком и за предыдущие месяцы, начиная с января 2011 года, Вы можете получить, выбрав интересующий диапазон дат из раскрывающегося списка и нажав кнопку "Ввод!".


*Определитесь, кто Вы:
робот инопланетянин человек

Внимание! Время в таблицах - всемирное. Для получения местного времени необходимо прибавить поправку, которая равна 2 ч.

Смотрите также архив погоды в соседних городах и на ближайших метеорологических станциях:

Погода в Днепре (Днепропетровская область, Украина) (30 км)
Погода в Синельниково (Днепропетровская область, Украина) (48 км)
Погода в Павлограде (Днепропетровская область, Украина) (52 км)
Погода в Краснограде (Харьковская область, Украина) (66 км)
Погода в Лозовой (Харьковская область, Украина) (79 км)
Погода в Кобеляках (Полтавская область, Украина) (86 км)
Погода в Александрополе (Днепропетровская область, Украина) (98 км)
Погода в Полтаве (Полтавская область, Украина) (102 км)
Погода в Чаплино (Днепропетровская область, Украина) (104 км)
Погода в Комиссаровке (Днепропетровская область, Украина) (107 км)

Пояснения к столбцам:

Ветер - указаны скорость ветра в м/с - средняя за 10 мин, порывы в срок и между сроками (в фигурных скобках) и направление, откуда дует ветер: С - северный, СВ - северо-восточный, В - восточный, ЮВ - юго-восточный, Ю - южный, ЮЗ - юго-западный, З - западный, СЗ - северо-западный.
Видимость - горизонтальная дальность видимости в метрах или километрах. При видимости от 1 до 10 км при отсутствии осадков обычно наблюдается дымка, при ухудшении видимости до 1 км и менее - туман. В сухую погоду видимость может ухудшаться дымом, пылью или мглою.
Явления - указаны атмосферные явления, наблюдавшиеся в срок или в последний час перед сроком; фигурными скобками обозначены явления, наблюдавшиеся между сроками (за 1-3 часа до срока); квадратными скобками обозначены град или гололедные отложения с указанием их диаметра в мм.
Облачность - указаны через наклонную черту общая и нижняя облачность в баллах и высота нижней границы облаков в метрах; квадратными скобками обозначены формы облаков: Ci - перистые, Cs - перисто-слоистые, Cc - перисто-кучевые, Ac - высококучевые, As - высокослоистые, Sc - слоисто-кучевые, Ns - слоисто-дождевые, Cu - кучевые, Cb - кучево-дождевые. Подробнее классификацию облаков см. в Атласе облаков (PDF).
T - Температура воздуха - температура, измеренная на высоте 2 м над землей.
Td - Температура точки росы - температура, при понижении до которой содержащийся в воздухе водяной пар достигнет насыщения.
f - Относительная влажность воздуха - влажноcть воздуха, измеренная на высоте 2 м над землей.
Te - Эффективная температура - температура, которую ощущает одетый по сезону человек в тени. Характеристика душности погоды. При расчете учитывается влияние влажности воздуха и скорости ветра на теплоощущения человека.
Tes - Эффективная температура на солнце - температура, которую ощущает человек, с поправкой на солнечный нагрев. Характеристика знойности погоды. Зависит от высоты солнца над горизонтом, облачности и скорости ветра. Ночью, в пасмурную погоду, а также при ветре 12 м/с и более поправка равна нулю.
P - Атмосферное давление - приведенное к уровню моря атмосферное давление.
Po - Атмосферное давление - измеренное на уровне метеостанции атмосферное давление.
Tmin - Минимальная температура - минимум температуры воздуха на высоте 2 м над землей.
Tmax - Максимальная температура - максимум температуры воздуха на высоте 2 м над землей.
R - Количество осадков - Количество выпавших осадков за период времени, мм. При наведении курсора мыши на число - период времени, за который выпало указанное количество осадков.
R24 - Количество осадков - Количество выпавших осадков за 24 часа, мм.
S - Снежный покров - Высота снежного покрова, см. При наведении курсора мыши на число - состояние снежного покрова и степень покрытия местности в баллах.